Location: *
(44.1392°N, 4.8079°E)
Time: 22:00:31
(UTC+00:00)

MSX - Pass Details

Date: 21 June 2021
Orbit: 894 x 907 km, 98.8° (Epoch: 02 August)

Event Time Altitude Azimuth Distance (km) Brightness Sun altitude
Rises 02:14:25 0° 18° (NNE) 3,537 8.5 -14.0°
Reaches altitude 10° 02:16:55 10° 23° (NNE) 2,590 7.6 -13.7°
Maximum altitude 02:22:34 53° 100° (E) 1,098 4.5 -13.1°
Drops below altitude 10° 02:28:08 10° 177° (S) 2,564 5.8 -12.5°
Enters shadow 02:28:39 - 178° (S) 2,757 5.9 -12.5°
